PUA2106 SUMU-SBRF

Flight info

Callsign PUA2106
Flight time N/A
Altitude 35000
Route CRR UM661 TOLEP UM424 ARVUS UM540 ANISE UZ23 UTLEV/N0453F370 UZ23 ANBEX
Aircraft A320/M-SDE3FGHIRWY/LB1

Departure

Time 2026-05-08 19:53
Airport Carrasco General Cesáreo L. Berisso International Airport (SUMU)

Arrival

Time N/A
Airport Recife/Guararapes - Gilberto Freyre International Airport (SBRF)
Time Latitude Longitude Altitude Speed Heading
2026-05-08 19:05 -34.83539 -56.01650 84 ft 0 kts 143°
2026-05-08 19:09 -34.83540 -56.01649 84 ft 16 kts 143°
2026-05-08 19:14 -34.83539 -56.01649 82 ft 0 kts 143°
2026-05-08 19:16 -34.83539 -56.01650 82 ft 0 kts 143°
2026-05-08 19:25 -34.83538 -56.01650 82 ft 0 kts 143°
2026-05-08 19:29 -34.83538 -56.01651 82 ft 0 kts 143°
2026-05-08 19:38 -34.83537 -56.01651 87 ft 0 kts 143°
2026-05-08 19:42 -34.83521 -56.01666 87 ft 4 kts 140°
2026-05-08 19:42 -34.83501 -56.01688 86 ft 4 kts 131°
2026-05-08 19:42 -34.83485 -56.01714 84 ft 4 kts 114°
2026-05-08 19:43 -34.83481 -56.01742 84 ft 4 kts 62°
2026-05-08 19:43 -34.83486 -56.01751 84 ft 0 kts 54°
2026-05-08 19:43 -34.83486 -56.01752 84 ft 3 kts 54°
2026-05-08 19:47 -34.83483 -56.01747 82 ft 3 kts 46°
2026-05-08 19:47 -34.83438 -56.01769 84 ft 11 kts 313°
2026-05-08 19:47 -34.83374 -56.01831 84 ft 9 kts 326°
2026-05-08 19:48 -34.83346 -56.01851 85 ft 10 kts 333°
2026-05-08 19:48 -34.83255 -56.01808 86 ft 14 kts 57°
2026-05-08 19:48 -34.83211 -56.01715 85 ft 13 kts 54°
2026-05-08 19:48 -34.83163 -56.01638 84 ft 10 kts 52°
2026-05-08 19:49 -34.83112 -56.01555 86 ft 13 kts 55°
2026-05-08 19:49 -34.83062 -56.01472 83 ft 11 kts 52°
2026-05-08 19:49 -34.83020 -56.01406 84 ft 9 kts 55°
2026-05-08 19:49 -34.82991 -56.01357 83 ft 5 kts 53°
2026-05-08 19:50 -34.82967 -56.01320 85 ft 9 kts 51°
2026-05-08 19:50 -34.82918 -56.01239 86 ft 15 kts 55°
2026-05-08 19:50 -34.82840 -56.01146 82 ft 14 kts 21°
2026-05-08 19:50 -34.82804 -56.01141 86 ft 0 kts 358°
2026-05-08 19:51 -34.82795 -56.01142 85 ft 7 kts 357°
2026-05-08 19:51 -34.82724 -56.01170 84 ft 6 kts 317°
2026-05-08 19:51 -34.82718 -56.01237 85 ft 12 kts 248°
2026-05-08 19:52 -34.82792 -56.01356 84 ft 36 kts 230°
2026-05-08 19:52 -34.83069 -56.01824 84 ft 97 kts 233°
2026-05-08 19:52 -34.83574 -56.02651 82 ft 144 kts 233°
2026-05-08 19:52 -34.84211 -56.03703 477 ft 156 kts 236°
2026-05-08 19:53 -34.84850 -56.04769 1172 ft 155 kts 238°
2026-05-08 19:53 -34.85475 -56.05796 1975 ft 146 kts 240°
2026-05-08 19:53 -34.85875 -56.06900 2474 ft 150 kts 273°
2026-05-08 19:53 -34.85389 -56.08110 2739 ft 178 kts 308°
2026-05-08 19:54 -34.84219 -56.08864 2998 ft 215 kts 342°
2026-05-08 19:54 -34.82628 -56.08500 3457 ft 255 kts 24°
2026-05-08 19:54 -34.81392 -56.06861 4137 ft 277 kts 62°
2026-05-08 19:54 -34.81071 -56.04538 4783 ft 285 kts 100°
2026-05-08 19:55 -34.81735 -56.02236 5348 ft 295 kts 119°
2026-05-08 19:55 -34.82344 -55.99824 6110 ft 306 kts 94°
2026-05-08 19:55 -34.81920 -55.97299 6894 ft 308 kts 60°
2026-05-08 19:55 -34.80571 -55.95322 7715 ft 304 kts 37°
2026-05-08 19:56 -34.78915 -55.93716 8562 ft 306 kts 35°
2026-05-08 19:56 -34.77236 -55.92110 9397 ft 309 kts 36°
2026-05-08 19:56 -34.75533 -55.90485 10040 ft 318 kts 36°
2026-05-08 19:56 -34.73748 -55.88742 10246 ft 342 kts 40°
2026-05-08 19:57 -34.72005 -55.86640 10525 ft 361 kts 46°
2026-05-08 19:57 -34.70357 -55.84300 11139 ft 367 kts 50°
2026-05-08 19:57 -34.68761 -55.81857 11854 ft 371 kts 51°
2026-05-08 19:57 -34.67171 -55.79380 12573 ft 373 kts 51°
2026-05-08 19:58 -34.65591 -55.76948 13250 ft 376 kts 49°
2026-05-08 19:58 -34.63903 -55.74414 13898 ft 379 kts 48°
2026-05-08 19:58 -34.62214 -55.71942 14534 ft 382 kts 48°
2026-05-08 19:58 -34.60495 -55.69469 15124 ft 385 kts 47°
2026-05-08 19:59 -34.58753 -55.66980 15727 ft 388 kts 47°
2026-05-08 19:59 -34.57003 -55.64477 16326 ft 391 kts 47°
2026-05-08 19:59 -34.55236 -55.61948 16893 ft 395 kts 47°
2026-05-08 19:59 -34.53457 -55.59399 17492 ft 397 kts 47°
2026-05-08 20:00 -34.51668 -55.56832 18045 ft 401 kts 47°
2026-05-08 20:00 -34.49863 -55.54240 18529 ft 403 kts 47°
2026-05-08 20:00 -34.48051 -55.51637 19017 ft 405 kts 46°
2026-05-08 20:00 -34.46230 -55.49020 19507 ft 407 kts 46°
2026-05-08 20:01 -34.44397 -55.46388 20000 ft 410 kts 46°
2026-05-08 20:01 -34.42551 -55.43740 20472 ft 412 kts 46°
2026-05-08 20:01 -34.40692 -55.41078 20963 ft 415 kts 45°
2026-05-08 20:01 -34.38818 -55.38407 21409 ft 418 kts 45°
2026-05-08 20:02 -34.36930 -55.35722 21853 ft 420 kts 45°
2026-05-08 20:02 -34.35029 -55.33020 22294 ft 423 kts 45°
2026-05-08 20:02 -34.33121 -55.30302 22568 ft 424 kts 45°
2026-05-08 20:02 -34.31236 -55.27612 22838 ft 425 kts 45°
2026-05-08 20:03 -34.29324 -55.24879 23107 ft 426 kts 45°
2026-05-08 20:03 -34.27407 -55.22134 23370 ft 428 kts 45°
2026-05-08 20:03 -34.25477 -55.19375 23715 ft 431 kts 45°
2026-05-08 20:03 -34.23531 -55.16607 24077 ft 433 kts 45°
2026-05-08 20:04 -34.21545 -55.13790 24428 ft 436 kts 45°
2026-05-08 20:04 -34.19571 -55.10998 24752 ft 438 kts 45°
2026-05-08 20:04 -34.17615 -55.08230 25084 ft 441 kts 45°
2026-05-08 20:04 -34.15617 -55.05409 25401 ft 443 kts 45°
2026-05-08 20:05 -34.13610 -55.02571 25743 ft 445 kts 45°
2026-05-08 20:05 -34.11595 -54.99722 26067 ft 447 kts 45°
2026-05-08 20:05 -34.09572 -54.96862 26415 ft 449 kts 45°
2026-05-08 20:05 -34.07544 -54.93993 26760 ft 451 kts 45°
2026-05-08 20:06 -34.05505 -54.91111 27085 ft 453 kts 45°
2026-05-08 20:06 -34.03455 -54.88219 27408 ft 455 kts 45°
2026-05-08 20:06 -34.01392 -54.85317 27721 ft 457 kts 45°
2026-05-08 20:06 -33.99319 -54.82398 28021 ft 459 kts 45°
2026-05-08 20:07 -33.97241 -54.79466 28312 ft 461 kts 45°
2026-05-08 20:07 -33.95153 -54.76524 28593 ft 463 kts 45°
2026-05-08 20:07 -33.93047 -54.73571 28869 ft 465 kts 44°
2026-05-08 20:07 -33.90936 -54.70612 29167 ft 467 kts 44°
2026-05-08 20:08 -33.88818 -54.67644 29443 ft 468 kts 44°
2026-05-08 20:08 -33.86691 -54.64668 29711 ft 470 kts 44°
2026-05-08 20:08 -33.84551 -54.61683 29939 ft 472 kts 44°
2026-05-08 20:08 -33.82404 -54.58688 30207 ft 472 kts 43°
2026-05-08 20:09 -33.80264 -54.55698 30529 ft 471 kts 43°
2026-05-08 20:09 -33.78131 -54.52715 30836 ft 471 kts 43°
2026-05-08 20:09 -33.75996 -54.49732 31132 ft 470 kts 43°
2026-05-08 20:09 -33.73868 -54.46760 31427 ft 469 kts 42°
2026-05-08 20:10 -33.71741 -54.43789 31754 ft 468 kts 41°
2026-05-08 20:10 -33.69618 -54.40827 32068 ft 468 kts 41°
2026-05-08 20:10 -33.67494 -54.37872 32328 ft 467 kts 40°
2026-05-08 20:10 -33.65369 -54.34919 32627 ft 467 kts 40°
2026-05-08 20:11 -33.63244 -54.31970 32925 ft 467 kts 40°
2026-05-08 20:11 -33.61840 -54.30023 33125 ft 466 kts 40°
2026-05-08 20:11 -33.59718 -54.27082 33432 ft 466 kts 40°
2026-05-08 20:11 -33.57598 -54.24147 33700 ft 465 kts 39°
2026-05-08 20:12 -33.55483 -54.21223 33992 ft 463 kts 39°
2026-05-08 20:12 -33.53374 -54.18308 34256 ft 462 kts 39°
2026-05-08 20:12 -33.51266 -54.15400 34504 ft 462 kts 39°
2026-05-08 20:12 -33.49159 -54.12491 34735 ft 462 kts 39°
2026-05-08 20:13 -33.47055 -54.09585 34953 ft 462 kts 39°
2026-05-08 20:13 -33.44949 -54.06676 35165 ft 462 kts 39°
2026-05-08 20:13 -33.42840 -54.03773 35374 ft 462 kts 39°
2026-05-08 20:13 -33.40731 -54.00874 35570 ft 462 kts 39°
2026-05-08 20:14 -33.38625 -53.97973 35746 ft 461 kts 39°
2026-05-08 20:14 -33.36520 -53.95080 35966 ft 461 kts 39°
2026-05-08 20:14 -33.34415 -53.92195 36161 ft 460 kts 39°
2026-05-08 20:14 -33.32312 -53.89307 36338 ft 460 kts 39°
2026-05-08 20:15 -33.30210 -53.86420 36506 ft 460 kts 39°
2026-05-08 20:15 -33.28105 -53.83537 36644 ft 460 kts 39°
2026-05-08 20:15 -33.25997 -53.80654 36770 ft 461 kts 39°
2026-05-08 20:15 -33.23881 -53.77766 36790 ft 462 kts 39°
2026-05-08 20:16 -33.19646 -53.71996 36781 ft 462 kts 39°
2026-05-08 20:16 -33.15414 -53.66227 36791 ft 461 kts 39°
2026-05-08 20:17 -33.11187 -53.60468 36797 ft 461 kts 39°
2026-05-08 20:17 -33.06957 -53.54708 36795 ft 461 kts 38°
2026-05-08 20:18 -33.02747 -53.49000 36803 ft 462 kts 38°
2026-05-08 20:18 -32.98507 -53.43252 36806 ft 462 kts 38°
2026-05-08 20:19 -32.94267 -53.37513 36811 ft 461 kts 38°
2026-05-08 20:19 -32.90023 -53.31785 36811 ft 461 kts 38°
2026-05-08 20:20 -32.85777 -53.26064 36812 ft 461 kts 38°
2026-05-08 20:20 -32.81534 -53.20353 36778 ft 461 kts 38°
2026-05-08 20:21 -32.77294 -53.14647 36795 ft 460 kts 38°
2026-05-08 20:21 -32.72980 -53.09073 36802 ft 450 kts 30°
2026-05-08 20:22 -32.70528 -53.06862 36802 ft 437 kts 22°
2026-05-08 20:22 -32.67973 -53.04921 36802 ft 436 kts 22°
2026-05-08 20:22 -32.62854 -53.01047 36807 ft 437 kts 22°
2026-05-08 20:23 -32.57738 -52.97163 36789 ft 437 kts 21°
2026-05-08 20:23 -32.52619 -52.93276 36793 ft 437 kts 21°
2026-05-08 20:24 -32.47499 -52.89399 36809 ft 437 kts 21°
2026-05-08 20:24 -32.42375 -52.85528 36827 ft 437 kts 21°
2026-05-08 20:25 -32.37251 -52.81657 36827 ft 437 kts 21°
2026-05-08 20:25 -32.32132 -52.77794 36830 ft 436 kts 21°
2026-05-08 20:26 -32.27048 -52.73962 36803 ft 436 kts 20°
2026-05-08 20:26 -32.21944 -52.70126 36801 ft 434 kts 20°
2026-05-08 20:27 -32.16853 -52.66297 36821 ft 434 kts 20°
2026-05-08 20:27 -32.11760 -52.62478 36828 ft 433 kts 20°
2026-05-08 20:28 -32.06672 -52.58665 36831 ft 433 kts 20°
2026-05-08 20:28 -32.01582 -52.54856 36832 ft 433 kts 20°
2026-05-08 20:29 -31.96492 -52.51050 36789 ft 432 kts 19°
2026-05-08 20:29 -31.91419 -52.47267 36821 ft 432 kts 19°
2026-05-08 20:30 -31.86343 -52.43488 36824 ft 432 kts 19°
2026-05-08 20:30 -31.81268 -52.39715 36824 ft 431 kts 19°
2026-05-08 20:31 -31.76195 -52.35948 36823 ft 431 kts 19°
2026-05-08 20:31 -31.71123 -52.32194 36824 ft 430 kts 18°
2026-05-08 20:32 -31.66006 -52.28614 36778 ft 427 kts 16°
2026-05-08 20:32 -31.60880 -52.25143 36852 ft 425 kts 16°
2026-05-08 20:33 -31.55762 -52.21668 36862 ft 425 kts 16°
2026-05-08 20:33 -31.50659 -52.18171 36868 ft 425 kts 16°
2026-05-08 20:34 -31.45562 -52.14678 36871 ft 424 kts 16°
2026-05-08 20:35 -31.37920 -52.09444 36840 ft 424 kts 16°
2026-05-08 20:35 -31.32838 -52.05969 36861 ft 423 kts 16°
2026-05-08 20:36 -31.27762 -52.02513 36849 ft 421 kts 16°
2026-05-08 20:36 -31.22702 -51.99072 36874 ft 420 kts 16°
2026-05-08 20:37 -31.17684 -51.95657 36884 ft 420 kts 16°
2026-05-08 20:37 -31.12641 -51.92233 36883 ft 419 kts 16°
2026-05-08 20:38 -31.07596 -51.88817 36852 ft 420 kts 15°
2026-05-08 20:38 -31.02545 -51.85400 36872 ft 420 kts 15°
2026-05-08 20:39 -30.97493 -51.81977 36879 ft 420 kts 15°
2026-05-08 20:39 -30.92439 -51.78560 36865 ft 420 kts 15°
2026-05-08 20:40 -30.87388 -51.75147 36879 ft 419 kts 15°
2026-05-08 20:40 -30.82339 -51.71746 36884 ft 419 kts 15°
2026-05-08 20:41 -30.77297 -51.68355 36865 ft 418 kts 15°
2026-05-08 20:41 -30.72260 -51.64971 36876 ft 418 kts 15°
2026-05-08 20:42 -30.67227 -51.61592 36885 ft 418 kts 15°
2026-05-08 20:42 -30.62199 -51.58215 36888 ft 417 kts 15°
2026-05-08 20:43 -30.57176 -51.54845 36864 ft 417 kts 15°
2026-05-08 20:43 -30.52276 -51.51084 36827 ft 436 kts 26°
2026-05-08 20:44 -30.47673 -51.46501 36875 ft 436 kts 26°
2026-05-08 20:44 -30.43078 -51.41898 36888 ft 436 kts 26°
2026-05-08 20:45 -30.38484 -51.37309 36896 ft 436 kts 26°
2026-05-08 20:45 -30.33919 -51.32763 36864 ft 435 kts 26°
2026-05-08 20:46 -30.29325 -51.28203 36886 ft 435 kts 26°
2026-05-08 20:46 -30.24741 -51.23643 36894 ft 435 kts 26°
2026-05-08 20:47 -30.20151 -51.19096 36871 ft 434 kts 26°
2026-05-08 20:47 -30.15562 -51.14555 36816 ft 434 kts 26°
2026-05-08 20:48 -30.10971 -51.10018 36827 ft 434 kts 26°
2026-05-08 20:48 -30.06381 -51.05489 36835 ft 434 kts 26°
2026-05-08 20:49 -30.01791 -51.00958 36843 ft 434 kts 26°
2026-05-08 20:49 -29.97199 -50.96431 36852 ft 434 kts 26°
2026-05-08 20:50 -29.92602 -50.91902 36863 ft 434 kts 26°
2026-05-08 20:50 -29.88002 -50.87388 36851 ft 434 kts 26°
2026-05-08 20:51 -29.83309 -50.83105 36865 ft 428 kts 22°
2026-05-08 20:51 -29.78538 -50.79040 36876 ft 426 kts 22°
2026-05-08 20:52 -29.73765 -50.74983 36891 ft 427 kts 22°
2026-05-08 20:52 -29.69007 -50.70874 36891 ft 428 kts 23°
2026-05-08 20:53 -29.64264 -50.66736 36887 ft 428 kts 23°
2026-05-08 20:53 -29.59523 -50.62600 36859 ft 429 kts 23°
2026-05-08 20:54 -29.54752 -50.58472 36872 ft 429 kts 23°
2026-05-08 20:54 -29.49966 -50.54345 36875 ft 432 kts 23°
2026-05-08 20:55 -29.45143 -50.50198 36889 ft 434 kts 24°
2026-05-08 20:55 -29.40316 -50.46049 36894 ft 433 kts 24°
2026-05-08 20:56 -29.35490 -50.41906 36861 ft 433 kts 24°
2026-05-08 20:56 -29.30662 -50.37773 36866 ft 433 kts 24°
2026-05-08 20:57 -29.25828 -50.33631 36880 ft 434 kts 24°
2026-05-08 20:57 -29.20990 -50.29488 36886 ft 434 kts 24°
2026-05-08 20:58 -29.16963 -50.26057 36866 ft 434 kts 24°
2026-05-08 20:58 -29.11323 -50.21251 36878 ft 436 kts 24°
2026-05-08 20:59 -29.06471 -50.17103 36894 ft 436 kts 25°
2026-05-08 20:59 -29.02389 -50.13628 36901 ft 437 kts 25°
2026-05-08 21:00 -28.97512 -50.09489 36914 ft 436 kts 24°
2026-05-08 21:00 -28.92644 -50.05352 36912 ft 436 kts 25°
2026-05-08 21:01 -28.87816 -50.01246 36880 ft 435 kts 25°
2026-05-08 21:01 -28.82955 -49.97127 36895 ft 435 kts 25°
2026-05-08 21:02 -28.78102 -49.93021 36886 ft 434 kts 25°
2026-05-08 21:02 -28.73256 -49.88929 36909 ft 433 kts 25°
2026-05-08 21:03 -28.68422 -49.84844 36908 ft 432 kts 25°
2026-05-08 21:03 -28.63603 -49.80772 36912 ft 431 kts 25°
2026-05-08 21:04 -28.58764 -49.76706 36913 ft 433 kts 25°
2026-05-08 21:04 -28.53928 -49.72642 36874 ft 432 kts 25°
2026-05-08 21:05 -28.49102 -49.68585 36901 ft 431 kts 25°
2026-05-08 21:05 -28.44282 -49.64527 36918 ft 431 kts 25°
2026-05-08 21:06 -28.39468 -49.60481 36912 ft 430 kts 25°
2026-05-08 21:06 -28.34653 -49.56456 36917 ft 430 kts 25°
2026-05-08 21:07 -28.29839 -49.52439 36874 ft 429 kts 25°
2026-05-08 21:07 -28.25033 -49.48421 36885 ft 429 kts 25°
2026-05-08 21:08 -28.20215 -49.44405 36868 ft 430 kts 26°
2026-05-08 21:08 -28.15393 -49.40389 36867 ft 430 kts 26°
2026-05-08 21:09 -28.10570 -49.36378 36883 ft 430 kts 26°
2026-05-08 21:09 -28.05749 -49.32352 36876 ft 431 kts 26°
2026-05-08 21:10 -28.00946 -49.28251 36864 ft 433 kts 27°
2026-05-08 21:10 -27.96149 -49.24129 36861 ft 433 kts 27°
2026-05-08 21:11 -27.91332 -49.20019 36850 ft 434 kts 27°
2026-05-08 21:11 -27.86492 -49.15940 36857 ft 433 kts 26°
2026-05-08 21:12 -27.81589 -49.11993 36866 ft 433 kts 25°
2026-05-08 21:12 -27.76655 -49.08092 36851 ft 433 kts 25°
2026-05-08 21:13 -27.71732 -49.04179 36864 ft 433 kts 26°
2026-05-08 21:13 -27.66860 -49.00251 36866 ft 434 kts 26°
2026-05-08 21:14 -27.61992 -48.96223 36869 ft 434 kts 27°
2026-05-08 21:14 -27.57131 -48.92181 36837 ft 434 kts 27°
2026-05-08 21:15 -27.52256 -48.88160 36836 ft 434 kts 27°
2026-05-08 21:15 -27.47367 -48.84154 36842 ft 434 kts 27°
2026-05-08 21:16 -27.42483 -48.80154 36851 ft 435 kts 27°
2026-05-08 21:16 -27.37593 -48.76148 36866 ft 435 kts 27°
2026-05-08 21:17 -27.32690 -48.72140 36862 ft 436 kts 27°
2026-05-08 21:17 -27.27788 -48.68135 36846 ft 436 kts 27°
2026-05-08 21:18 -27.22903 -48.64099 36824 ft 436 kts 28°
2026-05-08 21:18 -27.18078 -48.60023 36831 ft 437 kts 28°
2026-05-08 21:19 -27.13184 -48.55980 36835 ft 436 kts 27°
2026-05-08 21:19 -27.08250 -48.52009 36839 ft 436 kts 26°
2026-05-08 21:20 -27.03310 -48.48052 36847 ft 436 kts 27°
2026-05-08 21:20 -26.98373 -48.44088 36847 ft 436 kts 27°
2026-05-08 21:21 -26.93441 -48.40109 36813 ft 437 kts 27°
2026-05-08 21:21 -26.88498 -48.36124 36825 ft 438 kts 27°
2026-05-08 21:22 -26.83546 -48.32138 36835 ft 439 kts 27°
2026-05-08 21:22 -26.78588 -48.28149 36849 ft 439 kts 27°
2026-05-08 21:23 -26.73624 -48.24179 36856 ft 439 kts 26°
2026-05-08 21:23 -26.68662 -48.20204 36863 ft 439 kts 26°
2026-05-08 21:24 -26.63739 -48.16239 36859 ft 439 kts 27°
2026-05-08 21:24 -26.58790 -48.12243 36875 ft 439 kts 26°
2026-05-08 21:25 -26.53834 -48.08258 36876 ft 439 kts 26°
2026-05-08 21:25 -26.48875 -48.04275 36885 ft 439 kts 26°
2026-05-08 21:26 -26.43914 -48.00299 36883 ft 439 kts 26°
2026-05-08 21:26 -26.38950 -47.96335 36885 ft 439 kts 26°
2026-05-08 21:27 -26.33986 -47.92366 36895 ft 439 kts 26°
2026-05-08 21:27 -26.29021 -47.88393 36895 ft 440 kts 27°
2026-05-08 21:28 -26.24044 -47.84417 36897 ft 440 kts 27°
2026-05-08 21:28 -26.19060 -47.80448 36904 ft 441 kts 26°
2026-05-08 21:29 -26.14067 -47.76478 36890 ft 441 kts 27°
2026-05-08 21:29 -26.09066 -47.72499 36905 ft 442 kts 27°
2026-05-08 21:30 -26.04059 -47.68513 36904 ft 443 kts 27°
2026-05-08 21:30 -25.99042 -47.64534 36882 ft 443 kts 28°
2026-05-08 21:31 -25.94013 -47.60545 36889 ft 445 kts 28°
2026-05-08 21:31 -25.88967 -47.56549 36883 ft 447 kts 28°
2026-05-08 21:32 -25.83892 -47.52534 36887 ft 449 kts 28°
2026-05-08 21:32 -25.78800 -47.48506 36893 ft 450 kts 28°
2026-05-08 21:33 -25.73694 -47.44477 36899 ft 451 kts 28°
2026-05-08 21:33 -25.68582 -47.40450 36904 ft 451 kts 28°
2026-05-08 21:34 -25.63460 -47.36409 36865 ft 452 kts 28°
2026-05-08 21:34 -25.58322 -47.32362 36880 ft 454 kts 28°
2026-05-08 21:35 -25.53169 -47.28318 36885 ft 454 kts 28°
2026-05-08 21:35 -25.48013 -47.24269 36891 ft 455 kts 28°
2026-05-08 21:36 -25.42852 -47.20211 36888 ft 455 kts 28°
2026-05-08 21:36 -25.37722 -47.16194 36875 ft 455 kts 28°
2026-05-08 21:37 -25.32532 -47.12141 36871 ft 458 kts 28°
2026-05-08 21:37 -25.27321 -47.08069 36882 ft 460 kts 28°
2026-05-08 21:38 -25.22101 -47.03987 36886 ft 460 kts 28°
2026-05-08 21:38 -25.16870 -46.99907 36890 ft 460 kts 28°
2026-05-08 21:39 -25.11588 -46.95934 36873 ft 458 kts 25°
2026-05-08 21:39 -25.06127 -46.92348 36879 ft 456 kts 23°
2026-05-08 21:40 -25.00612 -46.88885 36873 ft 457 kts 23°
2026-05-08 21:40 -24.95112 -46.85353 36879 ft 458 kts 24°
2026-05-08 21:41 -24.86893 -46.79944 36885 ft 459 kts 24°
2026-05-08 21:41 -24.81409 -46.76349 36888 ft 459 kts 24°
2026-05-08 21:42 -24.75918 -46.72773 36892 ft 459 kts 24°
2026-05-08 21:42 -24.70419 -46.69185 36874 ft 460 kts 24°
2026-05-08 21:43 -24.64915 -46.65587 36879 ft 461 kts 24°
2026-05-08 21:43 -24.59200 -46.62646 36881 ft 446 kts
2026-05-08 21:44 -24.53166 -46.61582 36879 ft 438 kts
2026-05-08 21:44 -24.47114 -46.60756 36870 ft 439 kts
2026-05-08 21:45 -24.42033 -46.60056 36872 ft 439 kts
2026-05-08 21:45 -24.34979 -46.59084 36880 ft 440 kts
2026-05-08 21:46 -24.29927 -46.58387 36884 ft 440 kts
2026-05-08 21:46 -24.23810 -46.57548 36890 ft 440 kts 359°
2026-05-08 21:47 -24.17727 -46.56720 36884 ft 441 kts 360°
2026-05-08 21:47 -24.11676 -46.55899 36885 ft 442 kts 360°
2026-05-08 21:48 -24.05568 -46.55068 36895 ft 443 kts 360°
2026-05-08 21:48 -23.99455 -46.54227 36902 ft 443 kts 359°
2026-05-08 21:49 -23.93338 -46.53395 36909 ft 443 kts 359°
2026-05-08 21:49 -23.87235 -46.52286 36979 ft 450 kts
2026-05-08 21:50 -23.81184 -46.50493 36994 ft 451 kts
2026-05-08 21:50 -23.75132 -46.48686 37012 ft 451 kts
2026-05-08 21:51 -23.69081 -46.46894 37024 ft 451 kts
2026-05-08 21:51 -23.63024 -46.45123 37022 ft 451 kts
2026-05-08 21:52 -23.56966 -46.43350 37014 ft 451 kts
2026-05-08 21:52 -23.50910 -46.41577 37022 ft 451 kts
2026-05-08 21:53 -23.44857 -46.39807 37020 ft 451 kts
2026-05-08 21:53 -23.38798 -46.38055 37023 ft 450 kts
2026-05-08 21:54 -23.32718 -46.36552 37004 ft 447 kts
2026-05-08 21:54 -23.26622 -46.35176 37001 ft 447 kts
2026-05-08 21:55 -23.20519 -46.33772 36982 ft 449 kts
2026-05-08 21:56 -23.11363 -46.31586 36981 ft 450 kts
2026-05-08 21:56 -23.05245 -46.30121 36995 ft 451 kts
2026-05-08 21:57 -22.99122 -46.28664 37001 ft 450 kts
2026-05-08 21:57 -22.92994 -46.27215 36992 ft 451 kts
2026-05-08 21:58 -22.86850 -46.25761 36993 ft 452 kts
2026-05-08 21:58 -22.80699 -46.24302 37013 ft 453 kts
2026-05-08 21:59 -22.74646 -46.22199 37028 ft 467 kts 21°
2026-05-08 21:59 -22.69238 -46.18226 37016 ft 476 kts 30°
2026-05-08 22:00 -22.63945 -46.13813 37022 ft 479 kts 33°
2026-05-08 22:00 -22.58851 -46.09215 37030 ft 480 kts 34°
2026-05-08 22:01 -22.53730 -46.04569 37037 ft 480 kts 34°
2026-05-08 22:01 -22.48569 -45.99982 37038 ft 480 kts 33°
2026-05-08 22:02 -22.43377 -45.95433 37032 ft 480 kts 33°
2026-05-08 22:02 -22.38185 -45.90889 37037 ft 481 kts 33°
2026-05-08 22:03 -22.32993 -45.86325 37029 ft 481 kts 33°
2026-05-08 22:03 -22.27805 -45.81754 37037 ft 482 kts 33°
2026-05-08 22:04 -22.22596 -45.77212 37039 ft 481 kts 33°
2026-05-08 22:04 -22.17362 -45.72713 37045 ft 481 kts 33°
2026-05-08 22:05 -22.12127 -45.68218 37044 ft 481 kts 33°
2026-05-08 22:05 -22.06902 -45.63713 37045 ft 481 kts 33°
2026-05-08 22:06 -22.01684 -45.59204 37039 ft 481 kts 33°
2026-05-08 22:06 -21.96460 -45.54706 37030 ft 481 kts 33°
2026-05-08 22:07 -21.91224 -45.50210 37042 ft 481 kts 33°
2026-05-08 22:07 -21.85987 -45.45714 37047 ft 481 kts 34°
2026-05-08 22:08 -21.80750 -45.41219 37048 ft 482 kts 34°
2026-05-08 22:08 -21.75516 -45.36723 37045 ft 482 kts 34°
2026-05-08 22:09 -21.70273 -45.32231 37035 ft 482 kts 34°
2026-05-08 22:09 -21.65027 -45.27743 37046 ft 482 kts 34°
2026-05-08 22:10 -21.59781 -45.23256 37052 ft 482 kts 34°
2026-05-08 22:10 -21.54561 -45.18799 37048 ft 482 kts 34°
2026-05-08 22:11 -21.49305 -45.14319 37061 ft 482 kts 34°
2026-05-08 22:11 -21.44049 -45.09847 37059 ft 482 kts 34°
2026-05-08 22:12 -21.38795 -45.05377 37069 ft 482 kts 34°
2026-05-08 22:12 -21.33546 -45.00907 37059 ft 482 kts 35°
2026-05-08 22:13 -21.28295 -44.96443 37070 ft 482 kts 35°
2026-05-08 22:13 -21.23044 -44.91974 37063 ft 482 kts 35°
2026-05-08 22:14 -21.17796 -44.87508 37072 ft 482 kts 35°
2026-05-08 22:14 -21.12541 -44.83056 37073 ft 481 kts 35°
2026-05-08 22:15 -21.07279 -44.78623 37065 ft 481 kts 35°
2026-05-08 22:15 -21.01977 -44.74250 37087 ft 480 kts 33°
2026-05-08 22:16 -20.96544 -44.70108 37087 ft 479 kts 31°
2026-05-08 22:16 -20.91069 -44.66038 37087 ft 479 kts 32°
2026-05-08 22:17 -20.85621 -44.61921 37091 ft 479 kts 32°
2026-05-08 22:17 -20.80199 -44.57770 37092 ft 479 kts 32°
2026-05-08 22:18 -20.74804 -44.53631 37088 ft 479 kts 32°
2026-05-08 22:18 -20.69361 -44.49479 37090 ft 479 kts 32°
2026-05-08 22:19 -20.63965 -44.45376 37090 ft 479 kts 32°
2026-05-08 22:19 -20.58535 -44.41256 37079 ft 479 kts 32°
2026-05-08 22:20 -20.53100 -44.37131 37079 ft 479 kts 33°
2026-05-08 22:20 -20.47666 -44.33009 37082 ft 479 kts 32°
2026-05-08 22:21 -20.42236 -44.28879 37087 ft 480 kts 33°
2026-05-08 22:21 -20.36864 -44.24643 37076 ft 481 kts 34°
2026-05-08 22:22 -20.31519 -44.20349 37085 ft 481 kts 35°
2026-05-08 22:22 -20.26161 -44.16076 37082 ft 481 kts 34°
2026-05-08 22:23 -20.20789 -44.11819 37086 ft 481 kts 34°
2026-05-08 22:23 -20.15412 -44.07572 37081 ft 482 kts 34°
2026-05-08 22:24 -20.10024 -44.03326 37099 ft 482 kts 34°
2026-05-08 22:24 -20.04641 -43.99083 37114 ft 482 kts 34°
2026-05-08 22:25 -19.99256 -43.94843 37120 ft 482 kts 34°
2026-05-08 22:25 -19.93903 -43.90634 37129 ft 482 kts 34°
2026-05-08 22:26 -19.88510 -43.86396 37128 ft 482 kts 34°
2026-05-08 22:26 -19.83095 -43.82189 37125 ft 482 kts 33°
2026-05-08 22:27 -19.77565 -43.78171 37119 ft 481 kts 32°
2026-05-08 22:27 -19.71995 -43.74228 37112 ft 481 kts 32°
2026-05-08 22:28 -19.66440 -43.70253 37118 ft 481 kts 32°
2026-05-08 22:28 -19.60905 -43.66247 37110 ft 482 kts 32°
2026-05-08 22:29 -19.55369 -43.62236 37112 ft 482 kts 32°
2026-05-08 22:29 -19.49835 -43.58231 37104 ft 481 kts 32°
2026-05-08 22:30 -19.44307 -43.54239 37109 ft 481 kts 32°
2026-05-08 22:30 -19.38770 -43.50254 37094 ft 481 kts 32°
2026-05-08 22:31 -19.34164 -43.46943 37092 ft 481 kts 32°
2026-05-08 22:31 -19.27727 -43.42211 37092 ft 482 kts 34°
2026-05-08 22:32 -19.23279 -43.38663 37105 ft 482 kts 36°
2026-05-08 22:32 -19.17971 -43.34325 37097 ft 482 kts 36°
2026-05-08 22:33 -19.12637 -43.30041 37097 ft 481 kts 35°
2026-05-08 22:33 -19.07267 -43.25806 37098 ft 481 kts 35°
2026-05-08 22:34 -19.01898 -43.21576 37097 ft 481 kts 35°
2026-05-08 22:34 -18.96535 -43.17339 37097 ft 481 kts 35°
2026-05-08 22:35 -18.91177 -43.13093 37094 ft 481 kts 35°
2026-05-08 22:35 -18.85819 -43.08850 37096 ft 481 kts 35°
2026-05-08 22:36 -18.80494 -43.04643 37084 ft 482 kts 35°
2026-05-08 22:36 -18.75124 -43.00408 37093 ft 482 kts 35°
2026-05-08 22:37 -18.69753 -42.96171 37096 ft 482 kts 35°
2026-05-08 22:37 -18.64390 -42.91928 37100 ft 482 kts 35°
2026-05-08 22:38 -18.59023 -42.87695 37095 ft 482 kts 35°
2026-05-08 22:38 -18.53647 -42.83473 37093 ft 482 kts 35°
2026-05-08 22:39 -18.48273 -42.79243 37091 ft 482 kts 35°
2026-05-08 22:39 -18.42905 -42.75025 37097 ft 481 kts 35°
2026-05-08 22:40 -18.37539 -42.70813 37093 ft 481 kts 35°
2026-05-08 22:40 -18.32172 -42.66608 37091 ft 481 kts 35°
2026-05-08 22:41 -18.26810 -42.62402 37092 ft 481 kts 35°
2026-05-08 22:41 -18.21448 -42.58202 37093 ft 480 kts 35°
2026-05-08 22:42 -18.16084 -42.54008 37091 ft 480 kts 35°
2026-05-08 22:42 -18.10727 -42.49815 37085 ft 480 kts 35°
2026-05-08 22:43 -18.05368 -42.45628 37092 ft 480 kts 35°
2026-05-08 22:43 -18.00006 -42.41456 37087 ft 480 kts 35°
2026-05-08 22:44 -17.94641 -42.37278 37091 ft 480 kts 35°
2026-05-08 22:44 -17.89283 -42.33095 37098 ft 480 kts 35°
2026-05-08 22:45 -17.83922 -42.28915 37095 ft 480 kts 35°
2026-05-08 22:45 -17.78557 -42.24743 37105 ft 480 kts 35°
2026-05-08 22:46 -17.73195 -42.20574 37104 ft 480 kts 35°
2026-05-08 22:46 -17.67831 -42.16398 37110 ft 480 kts 35°
2026-05-08 22:47 -17.62465 -42.12220 37109 ft 480 kts 35°
2026-05-08 22:47 -17.57096 -42.08057 37107 ft 480 kts 35°
2026-05-08 22:48 -17.51718 -42.03901 37106 ft 480 kts 35°
2026-05-08 22:48 -17.46338 -41.99744 37109 ft 481 kts 35°
2026-05-08 22:49 -17.40966 -41.95579 37115 ft 481 kts 35°
2026-05-08 22:49 -17.32945 -41.89360 37110 ft 480 kts 36°
2026-05-08 22:50 -17.27575 -41.85203 37108 ft 480 kts 36°
2026-05-08 22:50 -17.22202 -41.81053 37103 ft 480 kts 35°
2026-05-08 22:51 -17.16829 -41.76905 37107 ft 480 kts 35°
2026-05-08 22:51 -17.11456 -41.72761 37104 ft 480 kts 36°
2026-05-08 22:52 -17.06087 -41.68608 37113 ft 480 kts 36°
2026-05-08 22:52 -17.00714 -41.64458 37116 ft 480 kts 36°
2026-05-08 22:53 -16.95331 -41.60321 37115 ft 480 kts 35°
2026-05-08 22:53 -16.89949 -41.56189 37121 ft 480 kts 35°
2026-05-08 22:54 -16.84574 -41.52050 37115 ft 480 kts 36°
2026-05-08 22:54 -16.79206 -41.47920 37122 ft 479 kts 35°
2026-05-08 22:55 -16.73837 -41.43802 37119 ft 479 kts 35°
2026-05-08 22:55 -16.68470 -41.39679 37108 ft 479 kts 36°
2026-05-08 22:56 -16.63116 -41.35531 37109 ft 480 kts 36°
2026-05-08 22:56 -16.57772 -41.31371 37116 ft 479 kts 36°
2026-05-08 22:57 -16.52429 -41.27213 37118 ft 479 kts 36°
2026-05-08 22:57 -16.47085 -41.23069 37113 ft 479 kts 36°
2026-05-08 22:58 -16.41731 -41.18935 37111 ft 479 kts 36°
2026-05-08 22:58 -16.36376 -41.14803 37115 ft 479 kts 36°
2026-05-08 22:59 -16.31021 -41.10660 37117 ft 480 kts 36°
2026-05-08 22:59 -16.25663 -41.06520 37117 ft 480 kts 36°
2026-05-08 23:00 -16.20296 -41.02386 37107 ft 480 kts 36°
2026-05-08 23:00 -16.14926 -40.98239 37106 ft 481 kts 36°
2026-05-08 23:01 -16.09550 -40.94094 37108 ft 481 kts 36°
2026-05-08 23:01 -16.04202 -40.89973 37121 ft 481 kts 36°
2026-05-08 23:02 -15.98822 -40.85836 37117 ft 481 kts 36°
2026-05-08 23:02 -15.93438 -40.81701 37117 ft 481 kts 36°
2026-05-08 23:03 -15.88063 -40.77565 37116 ft 481 kts 36°
2026-05-08 23:03 -15.82687 -40.73427 37115 ft 481 kts 36°
2026-05-08 23:04 -15.77303 -40.69297 37119 ft 481 kts 36°
2026-05-08 23:04 -15.71916 -40.65166 37124 ft 481 kts 36°
2026-05-08 23:05 -15.66540 -40.61043 37120 ft 480 kts 36°
2026-05-08 23:05 -15.61165 -40.56920 37116 ft 480 kts 36°
2026-05-08 23:06 -15.55785 -40.52807 37101 ft 480 kts 36°
2026-05-08 23:06 -15.50410 -40.48702 37097 ft 480 kts 36°
2026-05-08 23:07 -15.45028 -40.44594 37104 ft 480 kts 36°
2026-05-08 23:07 -15.39652 -40.40482 37108 ft 480 kts 36°
2026-05-08 23:08 -15.34280 -40.36375 37102 ft 480 kts 36°
2026-05-08 23:08 -15.28908 -40.32279 37090 ft 479 kts 36°
2026-05-08 23:09 -15.23534 -40.28185 37088 ft 480 kts 36°
2026-05-08 23:09 -15.18160 -40.24086 37093 ft 480 kts 36°
2026-05-08 23:10 -15.12782 -40.19990 37102 ft 480 kts 36°
2026-05-08 23:10 -15.07433 -40.15930 37098 ft 480 kts 36°
2026-05-08 23:11 -15.02050 -40.11839 37097 ft 480 kts 36°
2026-05-08 23:11 -14.96671 -40.07745 37097 ft 480 kts 36°
2026-05-08 23:12 -14.91288 -40.03657 37100 ft 480 kts 36°
2026-05-08 23:12 -14.85903 -39.99572 37098 ft 480 kts 36°
2026-05-08 23:13 -14.80518 -39.95498 37096 ft 480 kts 36°
2026-05-08 23:13 -14.75134 -39.91418 37103 ft 480 kts 36°
2026-05-08 23:14 -14.69754 -39.87336 37097 ft 480 kts 36°
2026-05-08 23:14 -14.64378 -39.83255 37089 ft 480 kts 36°
2026-05-08 23:15 -14.58995 -39.79182 37097 ft 480 kts 36°
2026-05-08 23:15 -14.53613 -39.75113 37097 ft 479 kts 36°
2026-05-08 23:16 -14.48236 -39.71044 37087 ft 479 kts 36°
2026-05-08 23:16 -14.42880 -39.67012 37091 ft 480 kts 36°
2026-05-08 23:17 -14.37493 -39.62953 37088 ft 480 kts 36°
2026-05-08 23:17 -14.32111 -39.58885 37089 ft 479 kts 36°
2026-05-08 23:18 -14.26732 -39.54830 37096 ft 479 kts 35°
2026-05-08 23:18 -14.22221 -39.51451 37085 ft 478 kts 35°
2026-05-08 23:19 -14.16834 -39.47425 37096 ft 478 kts 35°
2026-05-08 23:19 -14.11446 -39.43401 37095 ft 478 kts 35°
2026-05-08 23:20 -14.06066 -39.39375 37079 ft 478 kts 35°
2026-05-08 23:20 -14.00692 -39.35346 37086 ft 478 kts 35°
2026-05-08 23:21 -13.95313 -39.31327 37081 ft 477 kts 35°
2026-05-08 23:21 -13.89975 -39.27348 37070 ft 477 kts 35°
2026-05-08 23:22 -13.84607 -39.23336 37073 ft 476 kts 35°
2026-05-08 23:22 -13.79246 -39.19325 37068 ft 476 kts 35°
2026-05-08 23:23 -13.73881 -39.15327 37069 ft 476 kts 35°
2026-05-08 23:23 -13.68515 -39.11332 37079 ft 476 kts 35°
2026-05-08 23:24 -13.63155 -39.07333 37067 ft 476 kts 35°
2026-05-08 23:24 -13.57795 -39.03342 37069 ft 476 kts 35°
2026-05-08 23:25 -13.52424 -38.99361 37069 ft 476 kts 35°
2026-05-08 23:25 -13.47049 -38.95398 37078 ft 476 kts 35°
2026-05-08 23:26 -13.41670 -38.91426 37065 ft 476 kts 35°
2026-05-08 23:26 -13.36296 -38.87451 37064 ft 476 kts 35°
2026-05-08 23:27 -13.30923 -38.83477 37065 ft 476 kts 35°
2026-05-08 23:27 -13.25554 -38.79513 37073 ft 475 kts 35°
2026-05-08 23:28 -13.20182 -38.75549 37070 ft 475 kts 35°
2026-05-08 23:28 -13.14814 -38.71590 37064 ft 475 kts 34°
2026-05-08 23:29 -13.09445 -38.67633 37061 ft 475 kts 34°
2026-05-08 23:29 -13.04120 -38.63707 37070 ft 474 kts 34°
2026-05-08 23:30 -12.98762 -38.59764 37070 ft 474 kts 34°
2026-05-08 23:30 -12.93372 -38.55799 37069 ft 474 kts 34°
2026-05-08 23:31 -12.88052 -38.51884 37066 ft 474 kts 34°
2026-05-08 23:31 -12.82700 -38.47941 37071 ft 474 kts 34°
2026-05-08 23:32 -12.77347 -38.44009 37073 ft 473 kts 34°
2026-05-08 23:32 -12.71998 -38.40080 37075 ft 473 kts 34°
2026-05-08 23:33 -12.66659 -38.36160 37062 ft 472 kts 34°
2026-05-08 23:33 -12.61319 -38.32249 37065 ft 472 kts 34°
2026-05-08 23:34 -12.55982 -38.28340 37065 ft 472 kts 34°
2026-05-08 23:34 -12.50648 -38.24428 37065 ft 472 kts 34°
2026-05-08 23:35 -12.45318 -38.20518 37064 ft 471 kts 34°
2026-05-08 23:35 -12.39987 -38.16605 37062 ft 471 kts 33°
2026-05-08 23:36 -12.34655 -38.12711 37069 ft 471 kts 33°
2026-05-08 23:36 -12.29324 -38.08814 37062 ft 471 kts 33°
2026-05-08 23:37 -12.23995 -38.04922 37060 ft 471 kts 33°
2026-05-08 23:37 -12.18664 -38.01030 37065 ft 471 kts 33°
2026-05-08 23:38 -12.13335 -37.97133 37059 ft 471 kts 33°
2026-05-08 23:38 -12.08009 -37.93246 37067 ft 471 kts 33°
2026-05-08 23:39 -12.02680 -37.89367 37063 ft 470 kts 33°
2026-05-08 23:39 -11.97351 -37.85491 37060 ft 470 kts 33°
2026-05-08 23:40 -11.92028 -37.81617 37059 ft 470 kts 33°
2026-05-08 23:40 -11.86705 -37.77741 37051 ft 470 kts 33°
2026-05-08 23:41 -11.81416 -37.73897 37051 ft 470 kts 33°
2026-05-08 23:41 -11.76050 -37.70012 37060 ft 470 kts 33°
2026-05-08 23:42 -11.70750 -37.66182 37056 ft 470 kts 33°
2026-05-08 23:42 -11.65425 -37.62325 37054 ft 470 kts 33°
2026-05-08 23:43 -11.60096 -37.58466 37047 ft 470 kts 33°
2026-05-08 23:43 -11.54767 -37.54614 37046 ft 470 kts 33°
2026-05-08 23:44 -11.49434 -37.50761 37044 ft 470 kts 33°
2026-05-08 23:44 -11.44102 -37.46911 37052 ft 470 kts 32°
2026-05-08 23:45 -11.38773 -37.43065 37054 ft 469 kts 32°
2026-05-08 23:45 -11.33443 -37.39228 37047 ft 469 kts 32°
2026-05-08 23:46 -11.28121 -37.35383 37047 ft 469 kts 32°
2026-05-08 23:46 -11.22800 -37.31535 37048 ft 469 kts 32°
2026-05-08 23:47 -11.17477 -37.27703 37046 ft 469 kts 32°
2026-05-08 23:47 -11.12151 -37.23868 37043 ft 469 kts 32°
2026-05-08 23:48 -11.06827 -37.20030 37035 ft 469 kts 32°
2026-05-08 23:48 -11.01546 -37.16221 37038 ft 468 kts 32°
2026-05-08 23:49 -10.96221 -37.12402 37040 ft 468 kts 32°
2026-05-08 23:49 -10.90894 -37.08592 37040 ft 468 kts 32°
2026-05-08 23:50 -10.85569 -37.04780 37039 ft 468 kts 32°
2026-05-08 23:50 -10.80248 -37.00967 37041 ft 468 kts 32°
2026-05-08 23:51 -10.74930 -36.97162 37045 ft 467 kts 32°
2026-05-08 23:51 -10.69620 -36.93361 37052 ft 467 kts 32°
2026-05-08 23:52 -10.64314 -36.89558 37052 ft 466 kts 32°
2026-05-08 23:52 -10.59009 -36.85766 37052 ft 466 kts 32°
2026-05-08 23:53 -10.53707 -36.81985 37047 ft 466 kts 32°
2026-05-08 23:53 -10.48403 -36.78204 37053 ft 465 kts 32°
2026-05-08 23:54 -10.43110 -36.74422 37050 ft 465 kts 32°
2026-05-08 23:55 -10.35178 -36.68755 37055 ft 465 kts 32°
2026-05-08 23:55 -10.29888 -36.64984 37046 ft 464 kts 32°
2026-05-08 23:56 -10.24639 -36.61249 37046 ft 464 kts 32°
2026-05-08 23:56 -10.19352 -36.57483 37052 ft 464 kts 32°
2026-05-08 23:57 -10.14070 -36.53721 37050 ft 464 kts 32°
2026-05-08 23:57 -10.08785 -36.49962 37052 ft 464 kts 32°
2026-05-08 23:58 -10.03495 -36.46212 37051 ft 464 kts 32°
2026-05-08 23:58 -9.98204 -36.42472 37044 ft 464 kts 32°
2026-05-08 23:59 -9.92911 -36.38731 37048 ft 464 kts 32°
2026-05-08 23:59 -9.87624 -36.34978 37050 ft 464 kts 32°
2026-05-09 00:00 -9.82335 -36.31229 37054 ft 464 kts 32°
2026-05-09 00:00 -9.77038 -36.27490 37060 ft 464 kts 32°
2026-05-09 00:01 -9.71745 -36.23755 37065 ft 463 kts 32°
2026-05-09 00:01 -9.66455 -36.20021 37068 ft 463 kts 32°
2026-05-09 00:02 -9.61174 -36.16287 37067 ft 463 kts 32°
2026-05-09 00:02 -9.55892 -36.12553 37059 ft 463 kts 32°
2026-05-09 00:03 -9.50614 -36.08827 37063 ft 463 kts 32°
2026-05-09 00:03 -9.45329 -36.05101 37051 ft 462 kts 32°
2026-05-09 00:04 -9.40052 -36.01376 37060 ft 462 kts 32°
2026-05-09 00:04 -9.34774 -35.97653 37065 ft 462 kts 31°
2026-05-09 00:05 -9.30389 -35.94562 37051 ft 462 kts 31°
2026-05-09 00:05 -9.25112 -35.90848 37054 ft 462 kts 31°
2026-05-09 00:06 -9.19837 -35.87131 37049 ft 462 kts 31°
2026-05-09 00:06 -9.14553 -35.83415 37052 ft 462 kts 31°
2026-05-09 00:07 -9.09271 -35.79698 37064 ft 462 kts 32°
2026-05-09 00:07 -9.03991 -35.75977 37065 ft 462 kts 31°
2026-05-09 00:08 -8.99042 -35.71796 37061 ft 466 kts 40°
2026-05-09 00:08 -8.94328 -35.67298 37057 ft 466 kts 40°
2026-05-09 00:09 -8.89616 -35.62797 37061 ft 466 kts 40°
2026-05-09 00:09 -8.84903 -35.58302 37066 ft 466 kts 40°
2026-05-09 00:10 -8.80189 -35.53808 37047 ft 466 kts 40°
2026-05-09 00:10 -8.75477 -35.49316 37052 ft 466 kts 40°
2026-05-09 00:11 -8.70763 -35.44826 37049 ft 465 kts 40°
2026-05-09 00:11 -8.66048 -35.40349 37051 ft 465 kts 40°
2026-05-09 00:12 -8.61330 -35.35876 37053 ft 465 kts 40°
2026-05-09 00:12 -8.56655 -35.31437 37049 ft 464 kts 40°
2026-05-09 00:13 -8.51954 -35.26972 37056 ft 464 kts 40°
2026-05-09 00:13 -8.47252 -35.22514 37047 ft 463 kts 40°
2026-05-09 00:14 -8.42549 -35.18060 37049 ft 463 kts 40°
2026-05-09 00:14 -8.37846 -35.13619 37039 ft 463 kts 40°
2026-05-09 00:15 -8.33148 -35.09177 37029 ft 463 kts 40°
2026-05-09 00:15 -8.28334 -35.04901 37024 ft 457 kts 27°
2026-05-09 00:15 -8.25435 -35.03686 37020 ft 449 kts 11°
2026-05-09 00:16 -8.22403 -35.02935 37008 ft 448 kts 11°
2026-05-09 00:16 -8.16292 -35.02095 37001 ft 440 kts 348°
2026-05-09 00:17 -8.10411 -35.03677 36983 ft 437 kts 340°
2026-05-09 00:17 -8.04623 -35.05596 36983 ft 438 kts 340°
2026-05-09 00:18 -7.98836 -35.07503 37006 ft 431 kts 340°
2026-05-09 00:18 -7.96027 -35.08390 37017 ft 415 kts 341°
2026-05-09 00:18 -7.93316 -35.09236 37014 ft 400 kts 341°
2026-05-09 00:18 -7.90698 -35.10047 37024 ft 389 kts 341°
2026-05-09 00:19 -7.88124 -35.10844 37020 ft 385 kts 341°
2026-05-09 00:19 -7.83012 -35.12423 37027 ft 384 kts 341°
2026-05-09 00:20 -7.77908 -35.13999 37022 ft 383 kts 341°
2026-05-09 00:20 -7.72811 -35.15576 37028 ft 384 kts 341°
2026-05-09 00:21 -7.67708 -35.17164 37030 ft 384 kts 341°
2026-05-09 00:21 -7.62608 -35.18752 37030 ft 384 kts 341°
2026-05-09 00:22 -7.57543 -35.20327 37031 ft 384 kts 341°
2026-05-09 00:22 -7.52439 -35.21910 37029 ft 384 kts 341°
2026-05-09 00:23 -7.47338 -35.23489 37028 ft 384 kts 341°
2026-05-09 00:23 -7.42234 -35.25071 37029 ft 384 kts 341°
2026-05-09 00:24 -7.37119 -35.26651 37027 ft 385 kts 341°
2026-05-09 00:24 -7.31998 -35.28229 37027 ft 385 kts 341°
2026-05-09 00:25 -7.26881 -35.29805 37026 ft 385 kts 341°
2026-05-09 00:25 -7.21761 -35.31379 37024 ft 385 kts 341°
2026-05-09 00:26 -7.16643 -35.32951 37021 ft 385 kts 341°
2026-05-09 00:26 -7.11520 -35.34524 37019 ft 385 kts 341°
2026-05-09 00:27 -7.06387 -35.36102 37024 ft 386 kts 341°
2026-05-09 00:27 -7.01251 -35.37680 37024 ft 386 kts 341°
2026-05-09 00:28 -6.96111 -35.39258 37024 ft 386 kts 341°
2026-05-09 00:28 -6.90972 -35.40833 37024 ft 386 kts 341°
2026-05-09 00:29 -6.85832 -35.42406 37023 ft 386 kts 341°
2026-05-09 00:29 -6.80693 -35.43980 37019 ft 386 kts 341°
2026-05-09 00:30 -6.75547 -35.45567 37023 ft 387 kts 341°
2026-05-09 00:30 -6.70395 -35.47156 37024 ft 387 kts 341°
2026-05-09 00:31 -6.65280 -35.48733 37020 ft 387 kts 341°
2026-05-09 00:31 -6.60128 -35.50321 37020 ft 387 kts 341°
2026-05-09 00:32 -6.54973 -35.51907 37016 ft 388 kts 341°
2026-05-09 00:32 -6.49782 -35.53501 37016 ft 388 kts 341°
2026-05-09 00:33 -6.44659 -35.55072 37014 ft 388 kts 341°
2026-05-09 00:33 -6.39507 -35.56651 37008 ft 386 kts 341°
2026-05-09 00:34 -6.34368 -35.58224 37008 ft 386 kts 341°
2026-05-09 00:34 -6.29194 -35.59805 37008 ft 386 kts 341°
2026-05-09 00:35 -6.24092 -35.61363 37010 ft 386 kts 341°
2026-05-09 00:35 -6.18953 -35.62933 37007 ft 386 kts 341°
2026-05-09 00:36 -6.13818 -35.64509 37007 ft 386 kts 341°
2026-05-09 00:36 -6.08685 -35.66085 37008 ft 386 kts 341°
2026-05-09 00:37 -6.03553 -35.67658 37004 ft 386 kts 341°
2026-05-09 00:37 -5.98420 -35.69230 37005 ft 386 kts 341°
2026-05-09 00:38 -5.93285 -35.70800 37006 ft 386 kts 341°
2026-05-09 00:38 -5.88154 -35.72369 37004 ft 386 kts 341°
2026-05-09 00:39 -5.83017 -35.73933 37005 ft 386 kts 341°
2026-05-09 00:39 -5.77881 -35.75493 37005 ft 386 kts 341°
2026-05-09 00:40 -5.72737 -35.77049 37002 ft 386 kts 341°
2026-05-09 00:40 -5.67593 -35.78601 37003 ft 386 kts 341°
2026-05-09 00:41 -5.59879 -35.80925 37005 ft 386 kts 341°
2026-05-09 00:41 -5.54734 -35.82473 36995 ft 386 kts 341°
2026-05-09 00:42 -5.49582 -35.84027 37000 ft 387 kts 341°
2026-05-09 00:42 -5.44425 -35.85581 37000 ft 387 kts 341°
2026-05-09 00:43 -5.39270 -35.87133 36997 ft 387 kts 341°
2026-05-09 00:43 -5.34117 -35.88684 36998 ft 387 kts 341°
2026-05-09 00:44 -5.28961 -35.90234 36993 ft 387 kts 341°
2026-05-09 00:44 -5.23804 -35.91783 36991 ft 387 kts 341°
2026-05-09 00:45 -5.18689 -35.93324 36993 ft 386 kts 342°
2026-05-09 00:45 -5.13539 -35.94875 36992 ft 386 kts 342°
2026-05-09 00:46 -5.08391 -35.96424 36987 ft 386 kts 342°
2026-05-09 00:46 -5.03242 -35.97971 36986 ft 386 kts 342°
2026-05-09 00:47 -4.98091 -35.99517 36989 ft 386 kts 342°
2026-05-09 00:47 -4.92944 -36.01060 36983 ft 387 kts 342°
2026-05-09 00:48 -4.87792 -36.02596 36983 ft 386 kts 342°
2026-05-09 00:48 -4.82646 -36.04132 36985 ft 386 kts 342°
2026-05-09 00:49 -4.77502 -36.05662 36986 ft 386 kts 342°
2026-05-09 00:49 -4.72355 -36.07195 36986 ft 385 kts 342°
2026-05-09 00:50 -4.67215 -36.08722 36987 ft 385 kts 342°
2026-05-09 00:50 -4.62120 -36.10234 36986 ft 384 kts 342°
2026-05-09 00:51 -4.56997 -36.11756 36985 ft 385 kts 342°
2026-05-09 00:51 -4.51865 -36.13280 36986 ft 384 kts 342°
2026-05-09 00:52 -4.46742 -36.14799 36986 ft 384 kts 342°
2026-05-09 00:52 -4.42444 -36.16075 36983 ft 384 kts 342°
2026-05-09 00:53 -4.37320 -36.17590 36983 ft 384 kts 342°
2026-05-09 00:53 -4.32223 -36.19101 36983 ft 384 kts 342°
2026-05-09 00:54 -4.27094 -36.20620 36983 ft 385 kts 342°
2026-05-09 00:54 -4.21951 -36.22151 36983 ft 385 kts 342°
2026-05-09 00:55 -4.16809 -36.23677 36983 ft 386 kts 342°
2026-05-09 00:55 -4.11665 -36.25204 36983 ft 385 kts 342°
2026-05-09 00:56 -4.06520 -36.26733 36981 ft 386 kts 342°
2026-05-09 00:56 -4.01369 -36.28269 36983 ft 386 kts 342°
2026-05-09 00:57 -3.96227 -36.29808 36983 ft 386 kts 342°
2026-05-09 00:57 -3.91089 -36.31355 36980 ft 385 kts 342°
2026-05-09 00:58 -3.85955 -36.32901 36980 ft 385 kts 342°
2026-05-09 00:58 -3.80821 -36.34447 36980 ft 385 kts 342°
2026-05-09 00:59 -3.75687 -36.35991 36980 ft 385 kts 342°
2026-05-09 00:59 -3.70552 -36.37533 36980 ft 385 kts 342°
2026-05-09 01:00 -3.65415 -36.39078 36983 ft 386 kts 342°
2026-05-09 01:00 -3.60275 -36.40625 36983 ft 386 kts 342°
2026-05-09 01:01 -3.55136 -36.42171 36978 ft 386 kts 342°
2026-05-09 01:01 -3.49993 -36.43716 36977 ft 386 kts 342°
2026-05-09 01:02 -3.44848 -36.45261 36980 ft 386 kts 342°
2026-05-09 01:02 -3.39704 -36.46803 36980 ft 386 kts 342°
2026-05-09 01:03 -3.34559 -36.48346 36981 ft 386 kts 342°
2026-05-09 01:03 -3.29416 -36.49884 36980 ft 386 kts 342°
2026-05-09 01:04 -3.24304 -36.51413 36981 ft 386 kts 342°
2026-05-09 01:04 -3.19158 -36.52948 36980 ft 386 kts 342°
2026-05-09 01:05 -3.14012 -36.54485 36980 ft 386 kts 342°
2026-05-09 01:06 -3.06291 -36.56787 36978 ft 386 kts 342°
2026-05-09 01:06 -3.01148 -36.58343 36980 ft 386 kts 342°
2026-05-09 01:07 -2.96010 -36.59898 36977 ft 386 kts 342°
2026-05-09 01:07 -2.90871 -36.61454 36978 ft 384 kts 342°
2026-05-09 01:08 -2.85753 -36.63001 36980 ft 385 kts 342°
2026-05-09 01:08 -2.80633 -36.64548 36981 ft 384 kts 342°
2026-05-09 01:09 -2.75513 -36.66093 36973 ft 385 kts 342°
2026-05-09 01:09 -2.70390 -36.67705 36980 ft 387 kts 342°
2026-05-09 01:10 -2.65256 -36.69342 36977 ft 388 kts 342°
2026-05-09 01:10 -2.60121 -36.70979 36977 ft 386 kts 342°
2026-05-09 01:11 -2.54985 -36.72614 36980 ft 388 kts 342°
2026-05-09 01:11 -2.49849 -36.74248 36980 ft 387 kts 342°
2026-05-09 01:12 -2.44706 -36.75869 36983 ft 388 kts 342°
2026-05-09 01:12 -2.39563 -36.77445 36983 ft 389 kts 342°
2026-05-09 01:13 -2.34374 -36.79032 36984 ft 390 kts 342°
2026-05-09 01:13 -2.29183 -36.80613 36983 ft 390 kts 343°
2026-05-09 01:14 -2.23992 -36.82198 36983 ft 390 kts 342°
2026-05-09 01:14 -2.18800 -36.83776 36983 ft 390 kts 342°
2026-05-09 01:15 -2.13608 -36.85359 36988 ft 390 kts 343°
2026-05-09 01:15 -2.08416 -36.86967 36983 ft 391 kts 342°
2026-05-09 01:16 -2.03217 -36.88583 36983 ft 391 kts 342°
2026-05-09 01:16 -1.98023 -36.90195 36983 ft 391 kts 342°
2026-05-09 01:17 -1.90220 -36.92616 36980 ft 391 kts 342°
2026-05-09 01:17 -1.85019 -36.94227 36980 ft 392 kts 342°
2026-05-09 01:18 -1.79817 -36.95842 36980 ft 392 kts 342°
2026-05-09 01:18 -1.74614 -36.97460 36981 ft 392 kts 342°
2026-05-09 01:19 -1.69442 -36.99068 36983 ft 392 kts 342°
2026-05-09 01:19 -1.64202 -37.00688 36983 ft 391 kts 342°
2026-05-09 01:20 -1.59033 -37.02280 36983 ft 391 kts 343°
2026-05-09 01:20 -1.53795 -37.03894 36983 ft 391 kts 343°
2026-05-09 01:21 -1.48628 -37.05505 36983 ft 392 kts 342°
2026-05-09 01:21 -1.43422 -37.07146 36983 ft 392 kts 343°
2026-05-09 01:22 -1.38220 -37.08787 36980 ft 392 kts 343°
2026-05-09 01:22 -1.33012 -37.10426 36980 ft 392 kts 343°
2026-05-09 01:23 -1.27809 -37.12067 36983 ft 392 kts 343°
2026-05-09 01:23 -1.22599 -37.13704 36983 ft 392 kts 342°
2026-05-09 01:24 -1.17395 -37.15351 36983 ft 392 kts 342°
2026-05-09 01:24 -1.12188 -37.16995 36983 ft 392 kts 342°
2026-05-09 01:25 -1.06996 -37.18642 36980 ft 391 kts 343°
2026-05-09 01:25 -1.01809 -37.20279 36980 ft 391 kts 343°
2026-05-09 01:26 -0.96626 -37.21921 36980 ft 391 kts 343°
2026-05-09 01:26 -0.91439 -37.23554 36980 ft 391 kts 343°
2026-05-09 01:27 -0.86240 -37.25196 36980 ft 392 kts 343°
2026-05-09 01:27 -0.81028 -37.26833 36980 ft 393 kts 343°
2026-05-09 01:28 -0.75816 -37.28476 36980 ft 393 kts 343°
2026-05-09 01:28 -0.70605 -37.30116 36980 ft 393 kts 343°
2026-05-09 01:29 -0.65390 -37.31758 36980 ft 393 kts 343°
2026-05-09 01:29 -0.60175 -37.33396 36983 ft 393 kts 343°
2026-05-09 01:30 -0.54996 -37.35011 36980 ft 393 kts 343°
2026-05-09 01:30 -0.49780 -37.36636 36980 ft 393 kts 343°
2026-05-09 01:31 -0.44566 -37.38256 36980 ft 392 kts 343°
2026-05-09 01:31 -0.39349 -37.39878 36980 ft 393 kts 343°
2026-05-09 01:32 -0.34131 -37.41494 36980 ft 393 kts 343°
2026-05-09 01:32 -0.28915 -37.43111 36980 ft 393 kts 343°
2026-05-09 01:33 -0.23697 -37.44723 36980 ft 393 kts 342°
2026-05-09 01:33 -0.18494 -37.46334 36980 ft 393 kts 343°
2026-05-09 01:34 -0.13260 -37.47902 36980 ft 392 kts 345°
2026-05-09 01:34 -0.07950 -37.49028 36981 ft 390 kts
2026-05-09 01:35 -0.05285 -37.48581 36980 ft 389 kts 20°
2026-05-09 01:35 -0.02895 -37.47359 36980 ft 387 kts 38°
2026-05-09 01:35 -0.00986 -37.45470 36983 ft 388 kts 55°
2026-05-09 01:35 0.00271 -37.43097 36975 ft 387 kts 72°
2026-05-09 01:36 0.00755 -37.40459 36980 ft 388 kts 90°
2026-05-09 01:36 0.00432 -37.37799 36981 ft 388 kts 107°
2026-05-09 01:36 -0.00660 -37.35346 36979 ft 388 kts 124°
2026-05-09 01:36 -0.02444 -37.33335 36980 ft 389 kts 141°
2026-05-09 01:37 -0.04756 -37.31950 36980 ft 390 kts 159°
2026-05-09 01:37 -0.07347 -37.31136 36982 ft 391 kts 163°
2026-05-09 01:37 -0.12574 -37.29603 36980 ft 392 kts 163°
2026-05-09 01:38 -0.17806 -37.28068 36980 ft 392 kts 163°
2026-05-09 01:38 -0.22156 -37.26794 36980 ft 392 kts 163°
2026-05-09 01:39 -0.27390 -37.25257 36980 ft 392 kts 163°
2026-05-09 01:39 -0.32625 -37.23723 36980 ft 392 kts 163°